Regional Weather Roundup
Issued by NWS Kansas City/Pleasant Hill, MO

Home | Current Version | Previous Version | Graphics & Text | Print | Product List | Glossary Off
Versions: 1 2 3 4 5 6 7 8 9 10 11 12 13 14 15 16 17 18 19 20 21 22 23 24 25 26 27 28 29 30 31 32 33 34 35 36 37 38 39 40 41 42 43 44 45 46 47 48 49 50

000
ASUS43 KEAX 081310
RWREAX

WEATHER ROUNDUP FOR EASTERN KANSAS AND NORTHWEST MISSOURI
NATIONAL WEATHER SERVICE KANSAS CITY/PLEASANT HILL MO
700 AM CST MON FEB 08 2016

KSZ040-057-103>105-MOZ028-029-037-043-081400-
...KANSAS CITY METROPOLITAN AREA...

CITY           SKY/WX    TMP DP  RH WIND       PRES   REMARKS
K.C. INTL      MOCLDY    31  17  56 NW21G44   29.98R WCI  18
K.C. DOWNTOWN  MOCLDY    33  16  49 NW21G32   30.00R WCI  21
LEES SUMMIT    CLOUDY    33  16  49 NW21G39   29.99R WCI  21
OLATHE - IXD   FLURRIES  32  20  61 NW24G39   30.03R WCI  19
OLATHE - OJC   CLOUDY    31  23  72 NW20G25   30.01R WCI  19
LAWRENCE       FLURRIES  31  24  75 NW22G30   30.05R WCI  18

$$

MOZ001>008-011>017-020>025-030>033-038>040-044>046-053-054-081400-
...NORTHERN AND CENTRAL MISSOURI...

CITY           SKY/WX    TMP DP  RH WIND       PRES   REMARKS
ST. JOSEPH     CLOUDY    31  19  61 NW18G28   30.01R WCI  19
MOSBY            N/A     32  23  69 NW14G22   29.99S WCI  22
WARRENSBURG    CLOUDY    32  21  64 NW17G32   29.98R WCI  21
WHITEMAN AFB   CLOUDY    32  23  69 NW22      29.95S WCI  19
CLINTON          N/A     36  23  60 NW24G32   29.98S WCI  24
SEDALIA        FLURRIES  30  23  75 NW18G25   29.96R WCI  18
WARSAW         NOT AVBL
CHILLICOTHE      N/A     27  17  66 NW12G22   29.96R WCI  17
KIRKSVILLE     LGT SNOW  22  13  68 NW23G32   29.87R WCI   6

$$

MOZ041-047>049-056>058-063>065-088>090-097-081400-
...EASTERN AND SOUTHERN MISSOURI...

CITY           SKY/WX    TMP DP  RH WIND       PRES   REMARKS
ST. LOUIS INTL FLURRIES  33  18  53 W21G31    29.80R WCI  21
SPIRIT OF STL  CLOUDY    32  15  49 NW20G26   29.82R WCI  20
COLUMBIA       CLOUDY    29  19  66 NW21G38   29.87S WCI  16
JEFFERSON CITY LGT SNOW  30  23  75 NW13      29.91R WCI  20
ROLLA          CLOUDY    28  22  78 NW18G30   29.85R WCI  15
OSAGE BEACH    CLOUDY    32  18  55 NW7G24    29.92F WCI  26
SPRINGFIELD    MOCLDY    34  16  47 NW22G38   29.96S WCI  22
BRANSON        MOCLDY    34  18  51 NW20G31   29.98R WCI  22
JOPLIN         CLOUDY    34  17  50 W17G25    30.06S WCI  23
WEST PLAINS    CLOUDY    35  17  47 NW13G26   29.89S WCI  26

$$

IAZ060-094-KSZ022-034>040-054-083-096-NEZ052-066-093-081400-
...KANSAS...SOUTHEAST NEBRASKA AND IOWA...

CITY           SKY/WX    TMP DP  RH WIND       PRES   REMARKS
TOPEKA         LGT SNOW  32  25  75 N16       30.07R WCI  21
MANHATTAN      CLOUDY    35  17  47 NW14G30   30.12S WCI  26
EMPORIA        MOCLDY    34  18  52 NW24G35   30.08S WCI  21
CHANUTE        CLOUDY    34  19  54 NW16      30.08F WCI  24
WICHITA        PTCLDY    32  17  54 NW22      30.19S WCI  19
OMAHA          FLURRIES  27  19  72 NW25G35   30.02R WCI  12
LINCOLN        CLOUDY    29  18  63 N24G41    30.09R WCI  15
FALLS CITY     FLURRIES  31  19  61 NW21G36   30.03R WCI  18
LAMONI         FLURRIES  22  14  71 NW30G41   29.92R WCI   4
DES MOINES     LGT SNOW  18  11  74 NW22G29   29.91R BLWGSNOWWCI   1

$$




USA.gov is the U.S. government's official web portal to all federal, state and local government web resources and services.